Home   Weather   Datteln   Past weeks
Flag for Germany

Past Weather in Datteln, North Rhine-Westphalia, Germany — Yesterday and Last 2 Weeks

Now
54 °F

Overcast.


Feels Like: 52 °F
Forecast: 64 / 46 °F
Wind: 7 mph from South

Location: Dortmund / Wickede

Current Time: Oct 22, 2019 at 11:44:37 am

Latest Report: Oct 22, 2019 at 10:50 am


Visibility: N/A

Pressure: 30.24 "Hg

Humidity: 82%

Dew Point: 48 °F

Location of DattelnLocation

Past Weather in Datteln — Graph

°F

Datteln Temperature Yesterday

Maximum temperature yesterday: 64 °F (at 12:20 pm)
Minimum temperature yesterday: 50 °F (at 8:20 pm)
Average temperature yesterday: 56 °F

High & Low Weather Summary for the Past Weeks

 TemperatureHumidityPressure
High73 °F (Oct 13, 3:20 pm)100% (Oct 8, 7:50 am)30.24 "Hg (Oct 8, 7:50 am)
Low48 °F (Oct 7, 10:20 am)53% (Oct 14, 11:20 pm)29.65 "Hg (Oct 9, 4:20 pm)
Average57 °F82%29.82 "Hg
* Reported Oct 7 10:20 am — Oct 22 10:20 am, Datteln. Weather by CustomWeather, © 2019

Note: Actual official high and low records may vary slightly from our data, if they occured in-between our weather recording intervals... More about our weather records

Advertising

Datteln Weather History for the Previous 24 Hours

Scroll right to see more
 ConditionsComfort  
Time TempWeatherWind HumidityBarometerVisibility
10:20 am
Tue, Oct 22
54 °FOvercast.8 mph82%30.24 "HgN/A
9:50 am54 °FOvercast.9 mph82%30.24 "HgN/A
9:20 am52 °FOvercast.7 mph88%30.21 "HgN/A
8:50 am52 °FOvercast.7 mph82%30.21 "HgN/A
8:20 am52 °FOvercast.8 mph82%30.21 "HgN/A
7:50 am52 °FOvercast.9 mph82%30.18 "HgN/A
7:20 am52 °FOvercast.7 mph82%30.18 "HgN/A
6:50 am52 °FOvercast.7 mph82%30.18 "HgN/A
6:20 am52 °FOvercast.7 mph82%30.18 "HgN/A
5:50 am50 °FPassing clouds.8 mph88%30.18 "HgN/A
5:20 am48 °FPassing clouds.9 mph87%30.18 "HgN/A
4:50 am50 °FPassing clouds.9 mph82%30.15 "HgN/A
4:20 am50 °FPassing clouds.10 mph82%30.18 "HgN/A
3:50 am50 °FPassing clouds.9 mph88%30.18 "HgN/A
3:20 am50 °FPassing clouds.9 mph88%30.18 "HgN/A
2:50 am48 °FPassing clouds.8 mph87%30.18 "HgN/A
2:20 am50 °FPassing clouds.8 mph82%30.18 "HgN/A
1:50 am50 °FClear.8 mph82%30.15 "HgN/A
1:20 am50 °FPassing clouds.8 mph88%30.15 "HgN/A
12:50 am52 °FPassing clouds.8 mph82%30.15 "HgN/A
12:20 am52 °FPassing clouds.8 mph77%30.15 "HgN/A
11:50 pm
Mon, Oct 21
52 °FPassing clouds.8 mph82%30.15 "HgN/A
11:20 pm52 °FMostly cloudy.8 mph82%30.15 "HgN/A
10:50 pm54 °FPassing clouds.9 mph77%30.15 "HgN/A
10:20 pm52 °FPassing clouds.8 mph82%30.15 "HgN/A
9:50 pm54 °FPassing clouds.8 mph77%30.15 "HgN/A
9:20 pm52 °FPassing clouds.8 mph82%30.12 "HgN/A
8:50 pm52 °FClear.6 mph82%30.12 "Hg10 mi
8:20 pm50 °FClear.6 mph88%30.12 "Hg10 mi
7:50 pm52 °FClear.7 mph82%30.12 "Hg10 mi
7:20 pm52 °FClear.8 mph82%30.09 "Hg10 mi
6:50 pm55 °FClear.12 mph72%30.09 "Hg10 mi
6:20 pm55 °FPassing clouds.10 mph77%30.09 "HgN/A
5:50 pm57 °FPassing clouds.13 mph77%30.07 "HgN/A
5:20 pm61 °FScattered clouds.13 mph68%30.07 "HgN/A
4:50 pm61 °FPartly sunny.9 mph68%30.07 "HgN/A
4:20 pm61 °FScattered clouds.14 mph68%30.04 "HgN/A
3:50 pm63 °FPassing clouds.14 mph68%30.04 "HgN/A
3:20 pm63 °FScattered clouds.13 mph68%30.04 "HgN/A
2:50 pm63 °FPassing clouds.14 mph68%30.04 "HgN/A
2:20 pm63 °FPassing clouds.15 mph68%30.04 "HgN/A
1:50 pm63 °FPassing clouds.14 mph73%30.01 "HgN/A
1:20 pm64 °FScattered clouds.12 mph73%30.01 "HgN/A
12:50 pm64 °FBroken clouds.13 mph73%30.01 "HgN/A
12:20 pm64 °FBroken clouds.10 mph68%30.01 "HgN/A
11:50 am63 °FSunny.8 mph77%30.01 "Hg10 mi
11:20 am61 °FPassing clouds.6 mph88%29.98 "HgN/A
Weather by CustomWeather, © 2019

See weather overview